Mosby, MO

7:48 AM CST on December 10, 2019 (GMT -0600)
Clay County Regional

Weather History for KGPH - July, 2019

Change the Weather History Date:

Monday, July 22, 2019

  Actual Average (KMKC) Record (KMKC)
Temperature  
Mean Temperature 73 °F -  
Max Temperature 80 °F 87 °F 102 °F (2011)
Min Temperature 64 °F 70 °F 64 °F (2000)
Cooling Degree Days 8    
Growing Degree Days 23 (Base 50)    
Moisture  
Dew Point 57 °F    
Average Humidity 59    
Maximum Humidity 88    
Minimum Humidity 37    
Precipitation  
Precipitation 0.00 in - - ()
Sea Level Pressure  
Sea Level Pressure 30.14 in    
Wind  
Wind Speed 7 mph (North)    
Max Wind Speed 17 mph    
Max Gust Speed 24 mph    
Visibility 10 miles    
Events      
Averages and records for this station are not official NWS values.
T = Trace of Precipitation, MM = Missing Value Source: NWS Daily Summary

Daily Weather History Graph

Daily Weather History Graph

Search for Another Location

Airport or City:

Astronomy

Jul. 22, 2019 Rise Set
Actual Time 6:08 AM CDT 8:38 PM CDT
Civil Twilight 5:37 AM CDT 9:09 PM CDT
Nautical Twilight 4:59 AM CDT 9:47 PM CDT
Astronomical Twilight 4:16 AM CDT 10:29 PM CDT
Moon No Moon Rise 11:24 AM CDT (7/22)
Length of Visible Light 15h 31m
Length of Day
14h 30m
Waning Gibbous, 72% of the Moon is Illuminated
Jul 22
Waning Gibbous
Jul 24
Last Quarter
Jul 31
New
Aug 7
First Quarter
Aug 15
Full

Hourly Weather History & Observations

Time (CDT) Temp. Heat Index Dew Point Humidity Pressure Visibility Wind Dir Wind Speed Gust Speed Precip Events Conditions
3:55 AM 69.8 °F - 66.2 °F 88% 30.04 in 10.0 mi North 5.8 mph - N/A   Clear
4:35 AM 68.0 °F - 64.4 °F 88% 30.06 in 10.0 mi North 6.9 mph - N/A   Clear
4:55 AM 68.0 °F - 64.4 °F 88% 30.06 in 10.0 mi North 6.9 mph - N/A   Clear
5:55 AM 66.2 °F - 62.6 °F 88% 30.08 in 10.0 mi North 6.9 mph - N/A   Clear
6:15 AM 66.2 °F - 62.6 °F 88% 30.08 in 10.0 mi Calm Calm - N/A   Clear
6:55 AM 66.2 °F - 60.8 °F 83% 30.10 in 10.0 mi Calm Calm - N/A   Clear
7:15 AM 66.2 °F - 60.8 °F 83% 30.11 in 10.0 mi Calm Calm - N/A   Clear
7:35 AM 68.0 °F - 60.8 °F 78% 30.11 in 10.0 mi North 8.1 mph - N/A   Clear
7:55 AM 68.0 °F - 60.8 °F 78% 30.11 in 10.0 mi North 6.9 mph - N/A   Clear
8:15 AM 69.8 °F - 60.8 °F 73% 30.12 in 10.0 mi North 9.2 mph - N/A   Clear
10:55 AM 77.0 °F - 60.8 °F 57% 30.15 in 10.0 mi NNE 9.2 mph 17.3 mph N/A   Clear
11:15 AM 77.0 °F - 60.8 °F 57% 30.15 in 10.0 mi NE 11.5 mph - N/A   Clear
12:15 PM 78.8 °F - 59.0 °F 51% 30.15 in 10.0 mi NNE 16.1 mph 24.2 mph N/A   Scattered Clouds
12:35 PM 78.8 °F - 59.0 °F 51% 30.15 in - North 11.5 mph 20.7 mph N/A   Scattered Clouds
1:55 PM 80.6 °F 80.8 °F 57.2 °F 45% 30.15 in - North 10.4 mph 19.6 mph N/A   Mostly Cloudy
2:35 PM 80.6 °F 80.5 °F 55.4 °F 42% 30.14 in 10.0 mi North 12.7 mph - N/A   Scattered Clouds
2:55 PM 80.6 °F 80.3 °F 53.6 °F 39% 30.14 in - North 15.0 mph 18.4 mph N/A   Scattered Clouds
3:35 PM 78.8 °F - 55.4 °F 44% 30.15 in 10.0 mi North 13.8 mph - N/A   Scattered Clouds
3:55 PM 80.6 °F 80.3 °F 53.6 °F 39% 30.15 in 10.0 mi North 9.2 mph - N/A   Scattered Clouds
4:15 PM 80.6 °F 80.3 °F 53.6 °F 39% 30.14 in 10.0 mi North 17.3 mph 21.9 mph N/A   Scattered Clouds
4:35 PM 80.6 °F 80.3 °F 53.6 °F 39% 30.15 in 10.0 mi North 16.1 mph 21.9 mph N/A   Scattered Clouds
5:15 PM 80.6 °F - 51.8 °F 37% 30.14 in 10.0 mi North 13.8 mph 21.9 mph N/A   Scattered Clouds
5:55 PM 78.8 °F - 53.6 °F 42% 30.14 in 10.0 mi North 11.5 mph - N/A   Clear
6:15 PM 80.6 °F 80.3 °F 53.6 °F 39% 30.14 in 10.0 mi North 15.0 mph - N/A   Scattered Clouds
6:55 PM 80.6 °F 80.3 °F 53.6 °F 39% 30.13 in 10.0 mi North 13.8 mph 19.6 mph N/A   Scattered Clouds
7:35 PM 78.8 °F - 53.6 °F 42% 30.14 in 10.0 mi North 12.7 mph 17.3 mph N/A   Scattered Clouds
8:35 PM 75.2 °F - 53.6 °F 47% 30.15 in 10.0 mi North 9.2 mph - N/A   Clear
9:35 PM 71.6 °F - 55.4 °F 57% 30.17 in 10.0 mi Calm Calm - N/A   Clear
9:55 PM 69.8 °F - 55.4 °F 60% 30.17 in 10.0 mi Calm Calm - N/A   Clear
10:15 PM 69.8 °F - 53.6 °F 56% 30.18 in 10.0 mi Calm Calm - N/A   Clear
10:35 PM 69.8 °F - 53.6 °F 56% 30.19 in 10.0 mi Calm Calm - N/A   Clear
10:55 PM 69.8 °F - 53.6 °F 56% 30.19 in 10.0 mi Calm Calm - N/A   Clear
11:15 PM 68.0 °F - 53.6 °F 60% 30.19 in 10.0 mi Calm Calm - N/A   Clear
11:35 PM 66.2 °F - 53.6 °F 64% 30.20 in 10.0 mi Calm Calm - N/A   Clear
11:55 PM 64.4 °F - 53.6 °F 68% 30.21 in 10.0 mi Calm Calm - N/A   Clear